Regional Weather Roundup
Issued by NWS Jackson, KY

Home | Current Version | Previous Version | Text Only | Print | Product List | Glossary Off
Versions: 1 2 3 4 5 6 7 8 9 10 11 12 13 14 15 16 17 18 19 20 21 22 23 24 25 26 27 28 29 30 31 32 33 34 35 36 37 38 39 40 41 42 43 44 45 46 47 48 49 50

000
ASUS43 KJKL 300710
RWRJKL

EAST KENTUCKY HOURLY WEATHER ROUNDUP
NATIONAL WEATHER SERVICE JACKSON KY
300 AM EDT TUE JUN 30 2015

NOTE: "FAIR" INDICATES FEW OR NO CLOUDS BELOW 12,000 FEET WITH
NO SIGNIFICANT WEATHER AND/OR OBSTRUCTIONS TO VISIBILITY.

* THESE REPORTS ARE NOT UNDER NWS QUALITY CONTROL AND MAY NOT
  REPORT WEATHER SUCH AS PRECIPITATION AND FOG.

KYZ079-080-083-085-087-088-110-112-115-119-120-300800
...EASTERN KENTUCKY...

CITY           SKY/WX    TMP DP  RH WIND       PRES   REMARKS
JACKSON        CLOUDY    66  63  90 CALM      29.91S
LONDON         CLOUDY    67  61  81 SW3       29.93S
SOMERSET*      MOCLDY    64  64 100 CALM      29.93S
MONTICELLO*    MOCLDY    67  67 100 CALM      29.94F
MIDDLESBORO*   CLOUDY    66  66 100 NE3       29.95R
HARLAN APT*      N/A     64  64 100 CALM      29.95S
HAZARD APT*    PTSUNNY   68  66  94 SW7       29.91F
BLACK MTN*       N/A     59  59 100 SW7         N/A
PIKEVILLE APT* CLOUDY    68  64  88 SW3       29.91S
BIG SANDY*     CLOUDY    69  65  85 SW7       29.90S
MOREHEAD APT*  PTSUNNY   66  64  94 SW8       29.89F
$$

KYZ035-036-041-042-044-050-067-078-099-300800
...CENTRAL KENTUCKY...

CITY           SKY/WX    TMP DP  RH WIND       PRES   REMARKS
MT STERLING*   MOCLDY    66  64  94 W7        29.89F
FLEMING/MASON* CLEAR     64  64 100 SW6       29.87F FOG
DANVILLE*      MOCLDY    64  64 100 SW5       29.91F
RICHMOND*      MOCLDY    66  63  88 SW6       29.89F
LEXINGTON      PTCLDY    66  65  96 SW7       29.88F
FRANKFORT      CLEAR     65  63  93 SW6       29.86F
$$

KYZ091>093-OHZ055-061-077-WVZ005-015-034-035-042-300800
...SOUTHERN OHIO/WEST VIRGINIA...

CITY           SKY/WX    TMP DP  RH WIND       PRES   REMARKS
COVINGTON      CLEAR     66  64  93 SW5       29.84S
COLUMBUS       PTCLDY    61  61 100 CALM      29.81F FOG
DAYTON         CLOUDY    61  60  97 CALM      29.83F FOG
WILMINGTON     FOG       66  64  93 SW7       29.83S VSB 1/2
HUNTINGTON     MOCLDY    65  65 100 W5        29.85F
CHARLESTON     CLOUDY    66  65  96 CALM      29.86S
PINEVILLE*     CLOUDY    67  65  94 MISG      29.98S
BECKLEY        CLOUDY    68  59  73 S9        29.96S
BLUEFIELD      CLOUDY    68  59  73 SW9       29.99F
$$

VAZ002-007-008-TNZ017-027-036-066-071-300800
...SOUTHWEST VIRGINIA/EAST TENNESSEE...

CITY           SKY/WX    TMP DP  RH WIND       PRES   REMARKS
WISE*          CLOUDY    64  64 100 SW8       29.99F
JONESVILLE*      N/A    N/A N/A N/A MISG        N/A
ABINGDON*      CLOUDY    69  62  80 W5        29.99S
BRISTOL        CLOUDY    69  61  75 CALM      29.96F
KNOXVILLE      LGT RAIN  69  65  86 N3        29.94S
OAK RIDGE      CLOUDY    66  64  93 CALM      29.96F
CROSSVILLE     TSTM      65  62  90 VRB3      30.01R FOG
NASHVILLE      CLOUDY    72  70  93 SW6       29.92R
$$

...KEY TO REMARKS...
VSB - VISIBILITY IN MILES
WCI - WIND CHILL INDEX
HX  - HEAT INDEX

$$


USA.gov is the U.S. government's official web portal to all federal, state and local government web resources and services.